Flag for Russia Weather past 2 weeks in Astrakhan, Russia

Now
19 °F

Sunny.


Feels Like: 4 °F
Forecast: 15 / 25 °F
Wind: 17 mph from Southeast

Location: Astrakhan

Current Time: Jan 28, 2015 at 10:00:05 AM

Latest Report: Jan 28, 2015 at 9:30 AM


Visibility: 10 mi

Pressure: 30.27 "Hg

Humidity: 73%

Dew point: 12 °F

Location of AstrakhanLocation

Historic Weather in Astrakhan — Graph

°F

Astrakhan temperature yesterday

Maximum temperature yesterday: 27 °F (at 2:00 PM)
Minimum temperature yesterday: 16 °F (at 10:00 PM)
Average temperature yesterday: 20 °F

Past Weeks' High & Low Weather Summary

 TemperatureHumidityPressure
High43 °F (Jan 14, 2:30 PM)100% (Jan 16, 5:30 PM)30.74 "Hg (Jan 16, 5:30 PM)
Low5 °F (Jan 24, 4:30 AM)42% (Jan 25, 12:30 PM)30.01 "Hg (Jan 16, 11:30 AM)
Average25 °F82%30.37 "Hg
* Reported Jan 13 8:00 AM — Jan 28 8:30 AM, Astrakhan, Weather by CustomWeather, © 2014

Note: Actual official high and low records may vary slightly from our data, if they occured in-between our weather recording intervals... More about our weather records

Advertising

Astrakhan weather history for previous 24 hours

 ConditionsComfort  
Time TempWeatherWind HumidityBarometerVisibility
8:30 AM
Jan 28
18 °FBroken clouds.13 mph73%30.30 "HgN/A
8:00 AM16 °FPassing clouds.13 mph79%30.27 "HgN/A
7:30 AM14 °FPassing clouds.13 mph85%30.30 "HgN/A
7:00 AM14 °FPassing clouds.13 mph85%30.30 "HgN/A
6:30 AM14 °FClear.10 mph85%30.30 "Hg10 mi
6:00 AM14 °FClear.10 mph85%30.30 "Hg10 mi
5:30 AM16 °FClear.13 mph79%30.30 "Hg10 mi
5:00 AM16 °FClear.10 mph79%30.30 "Hg10 mi
4:30 AM16 °FClear.8 mph79%30.30 "Hg10 mi
4:00 AM16 °FClear.6 mph79%30.30 "Hg10 mi
3:30 AM16 °FClear.8 mph79%30.33 "Hg10 mi
3:00 AM16 °FPassing clouds.8 mph79%30.33 "HgN/A
2:30 AM16 °FPassing clouds.10 mph79%30.36 "HgN/A
2:00 AM16 °FPassing clouds.10 mph79%30.36 "HgN/A
1:30 AM18 °FPassing clouds.10 mph79%30.36 "HgN/A
1:00 AM16 °FPassing clouds.10 mph79%30.36 "HgN/A
12:30 AM16 °FPassing clouds.8 mph79%30.36 "HgN/A
12:00 AM16 °FPassing clouds.8 mph79%30.39 "HgN/A
11:30 PM
Jan 27
16 °FPassing clouds.8 mph79%30.39 "HgN/A
11:00 PM16 °FPassing clouds.10 mph86%30.39 "HgN/A
10:30 PM16 °FPassing clouds.10 mph86%30.39 "HgN/A
10:00 PM16 °FPassing clouds.13 mph86%30.39 "HgN/A
9:30 PM18 °FPassing clouds.13 mph79%30.39 "HgN/A
9:00 PM18 °FPassing clouds.15 mph79%30.42 "HgN/A
8:30 PM18 °FPassing clouds.15 mph79%30.42 "HgN/A
8:00 PM19 °FPassing clouds.13 mph73%30.39 "HgN/A
7:30 PM19 °FPassing clouds.15 mph73%30.39 "HgN/A
7:00 PM19 °FPassing clouds.13 mph73%30.42 "HgN/A
6:30 PM21 °FPassing clouds.13 mph68%30.42 "HgN/A
6:00 PM21 °FPassing clouds.13 mph68%30.42 "HgN/A
5:30 PM21 °FBroken clouds.15 mph68%30.39 "HgN/A
5:00 PM23 °FSunny.13 mph63%30.39 "Hg10 mi
4:30 PM23 °FSunny.13 mph63%30.39 "Hg10 mi
4:00 PM25 °FSunny.15 mph59%30.39 "Hg10 mi
3:30 PM25 °FSunny.15 mph59%30.39 "Hg10 mi
3:00 PM27 °FSunny.15 mph54%30.36 "Hg10 mi
2:30 PM27 °FSunny.15 mph54%30.36 "Hg10 mi
2:00 PM27 °FSunny.15 mph54%30.36 "Hg10 mi
1:30 PM25 °FSunny.17 mph59%30.36 "Hg10 mi
1:00 PM25 °FSunny.17 mph59%30.36 "Hg10 mi
12:30 PM25 °FSunny.17 mph59%30.36 "Hg10 mi
12:00 PM25 °FSunny.15 mph59%30.39 "Hg10 mi
11:30 AM23 °FSunny.15 mph63%30.39 "Hg10 mi
11:00 AM23 °FSunny.15 mph63%30.39 "Hg10 mi
10:30 AM21 °FSunny.15 mph68%30.39 "Hg10 mi
10:00 AM21 °FSunny.15 mph68%30.39 "Hg10 mi
Weather by CustomWeather, © 2014

See weather overviewHow to use our weather pages